Regional Weather Roundup
Issued by NWS

Home | Current Version | Previous Version | Text Only | Print | Product List | Glossary Off
Versions: 1 2 3 4 5 6 7 8 9 10 11 12 13 14 15 16 17 18 19 20 21 22 23 24 25 26 27

000
ASUS45 KBOU 250107
RWRCO

WEATHER ROUNDUP FOR COLORADO
NATIONAL WEATHER SERVICE DENVER/BOULDER CO
700 PM MDT FRI OCT 24 2014

NOTE: "FAIR" INDICATES FEW OR NO CLOUDS BELOW 12000 FEET WITH NO
SIGNIFICANT WEATHER AND/OR OBSTRUCTIONS TO VISIBILITY.

COZ001>005-013-030-031-250200-
...NORTHWEST COLORADO...

CITY           SKY/WX    TMP DP  RH WIND       PRES   REMARKS
CRAIG          CLEAR     51  29  42 SW5       30.26R
HAYDEN         CLEAR     61  23  23 W3        30.28R
MEEKER         CLEAR     51  34  52 CALM      30.28R
MOUNT WERNER   NOT AVBL
STEAMBOAT SPGS CLEAR     59  26  28 CALM      30.30R
WALDEN         CLEAR     50  21  32 S8        30.37R
$$

COZ006>008-011-250200-
...WEST CENTRAL VALLEYS...

CITY           SKY/WX    TMP DP  RH WIND       PRES   REMARKS
GRAND JUNCTION CLEAR     59  36  42 CALM      30.20S
MONTROSE       CLEAR     64  33  31 CALM      30.27R
EAGLE          CLEAR     61  27  27 W3        30.33R
RIFLE          CLEAR     61  36  39 SE7       30.24R
DELTA          CLEAR     67  35  30 N3        30.23R
NUCLA          CLEAR     68  27  21 NE5       30.30R
$$

COZ017>023-064>068-250200-
...SOUTHWEST COLORADO...

CITY           SKY/WX    TMP DP  RH WIND       PRES   REMARKS
DURANGO        CLEAR     61  33  35 S7        30.32R
CORTEZ         CLEAR     52  33  48 SE5       30.29R
PAGOSA SPRINGS CLEAR     52  34  50 CALM      30.39R
TELLURIDE      CLEAR     56  23  27 E3        30.49R
WOLF CREEK PAS CLEAR     41  27  56 SW14        N/A
$$

COZ009-010-012-014-032>034-037-058>063-250200-
...CENTRAL COLORADO...

CITY           SKY/WX    TMP DP  RH WIND       PRES   REMARKS
ASPEN          CLEAR     50  31  48 S9        30.38R
BUENA VISTA    CLEAR     52  22  31 W9        30.38R
COPPER MTN     CLEAR     45  14  29 W17       30.64S
BERTHOUD PASS  FAIR      37  34  87 W16       30.67R
COTTONWOOD PAS CLEAR     57  14  18 SW6       30.50R
GUNNISON       CLEAR     55  21  26 NW6       30.40R
KREMMLING      CLEAR     55  12  18 S5          N/A
LEADVILLE      CLEAR     45  19  35 NE7       30.50R
MONARCH PASS   CLEAR     43  19  39 W25       30.73R
SALIDA         CLEAR     61  21  22 W9        30.42R
SUNLIGHT       CLEAR     45  21  39 CALM      30.57S
WILKERSON PASS NOT AVBL
$$

COZ069>075-250200-
...SAN LUIS VALLEY/SANGRE DE CRISTO MOUNTAINS...

CITY           SKY/WX    TMP DP  RH WIND       PRES   REMARKS
ALAMOSA        CLEAR     57  24  28 N6        30.34R
LA VETA PASS   CLEAR     50  14  23 S9        30.51R
SAGUACHE       CLEAR     52  27  37 CALM      30.39R
$$

COZ035-036-038>040-250200-
...NORTHERN COLORADO FRONT RANGE...

CITY           SKY/WX    TMP DP  RH WIND       PRES   REMARKS
DENVER INTL AP CLEAR     63  28  26 SE8       30.18R
DMNS CITY PARK   N/A     67  25  20 E6        30.18R
AURORA         CLEAR     64  27  24 E8        30.20R
FRONT RANGE AP NOT AVBL
ERIE MUNI ARPT CLEAR     72  19  13 CALM      30.16R
BOULDER MUN AP CLEAR     70  25  18 S3        30.17R
CENTENNIAL     CLEAR     68  25  19 NE6       30.20R
BROOMFIELD     CLEAR     73  21  14 CALM      30.20
FORT COLLINS   CLEAR     68  30  24 S7        30.16R
LONGMONT       CLEAR     69  23  17 CALM      30.17R
$$

COZ041-046-047-076>085-087-088-250200-
...PIKES PEAK/PALMER DIVIDE AND SOUTHERN FOOTHILLS...

CITY           SKY/WX    TMP DP  RH WIND       PRES   REMARKS
COLO. SPRINGS  CLEAR     65  23  20 SE9       30.24R
A. F. ACADEMY  CLEAR     66  21  17 SE5       30.26R
ELLICOTT       NOT AVBL
FALCON         CLEAR     59  23  25 S5        30.30R
FORT CARSON    CLEAR     65  23  20 SW8       30.21R
LIMON          CLEAR     52  32  46 CALM      30.18R
MONUMENT HILL  CLEAR     54  25  32 SE6       30.28R
TRINIDAD       CLEAR     70  29  21 SW3       30.20R
$$

COZ042>045-048>051-090-091-250200-
...NORTHEAST COLORADO...

CITY           SKY/WX    TMP DP  RH WIND       PRES   REMARKS
GREELEY ARPT   CLEAR     64  30  27 SE5       30.14R
AKRON          CLEAR     66  24  20 S5        30.13S
BURLINGTON     CLEAR     65  27  23 E3        30.12R
WRAY           CLEAR     71  27  19 SW3       30.08R
STERLING       CLEAR     61  34  36 W6        30.08R
HOLYOKE        CLEAR     55  37  50 CALM      30.08R HAZE
FORT MORGAN    CLEAR     70  20  15 E3        30.13R
$$

COZ086-089-092>099-250200-
...SOUTHEAST COLORADO...

CITY           SKY/WX    TMP DP  RH WIND       PRES   REMARKS
PUEBLO         CLEAR     68  23  18 SE5       30.12R
LA JUNTA       CLEAR     70  34  26 E7        30.10R
LAMAR          CLEAR     68  37  32 E8        30.07R
SPRINGFIELD      N/A     64  36  35 CALM      30.13R
$$



USA.gov is the U.S. government's official web portal to all federal, state and local government web resources and services.